Location: Albany
(35.0170°S, 117.8920°E)
Time: 02:41:45
(UTC+08:00)

Envisat - Pass Details

Date: 28 November 2020
Orbit: 764 x 766 km, 98.1° (Epoch: 16 January)

Event Time Altitude Azimuth Distance (km) Brightness Sun altitude
Rises 03:53:42 0° 62° (ENE) 3,230 6.6 -10.4°
Reaches altitude 10° 03:57:07 10° 86° (E) 2,314 6.3 -9.8°
Maximum altitude 03:59:39 14° 116° (ESE) 2,059 6.7 -9.4°
Drops below altitude 10° 04:02:10 10° 146° (SE) 2,328 6.8 -9.0°
Sets 04:05:37 0° 170° (S) 3,264 7.0 -8.4°
